(121292) = 1995 SJ23 = 1999 RR180

Discovered at Socorro on 1999-09-09 by LINEAR.

Orbit

Orbit type: Main Belt

Note: WebGL enabled browser required.

epoch2023-09-13.0
epoch JD2460200.5
perihelion date2019-11-16.14275
perihelion JD2458803.64276
argument of perihelion (°)275.26587
ascending node (°)40.80584
inclination (°)4.48124
eccentricity0.2059564
perihelion distance (AU)2.0294539
Tisserand w.r.t. Jupiter3.4
ΔV w.r.t. Earth (km/sec)9.1
semimajor axis (AU)2.5558468
mean anomaly (°)336.94083
mean daily motion (°/day)0.24121350
aphelion distance (AU)3.082
period (years)4.09
P-vector [x]0.71821924
P-vector [y]-0.60344789
P-vector [z]-0.34642714
Q-vector [x]0.69394095
Q-vector [y]0.65773122
Q-vector [z]0.29297713
absolute magnitude16.06
phase slope0.15
uncertainty0
referenceMPEC 2024-A34
observations used480
oppositions20
arc length (days)10153
first opposition used1995
last opposition used2023
residual rms (arc-secs)0.72
perturbers coarse indicatorM-v
perturbers precise indicator003Ek
first observation date used1995-09-19.0
last observation date used2023-07-07.0
computer nameMPCLINUX
JD of orbit computation2456760.628583
perihelion JD uncertainty (days)4.9025E-05
argument of perihelion uncertainty (°)9.0384E-05
ascending node uncertainty (°)8.9872E-05
inclination uncertainty (°)4.7615E-06
eccentricity uncertainty 7.9368E-08
perihelion distance uncertainty (AU)2.1029E-07
Minimum Orbit Intersection Distances (in AU)
for orbit epoch: 2460200.5, reference: E2024-A34
Mercury1.60114
Venus1.30166
Earth1.02144
Mars0.64162
Jupiter2.22167
Saturn6.07453
Uranus15.4167
Neptune27.1792

Observations

487 total observations over interval: 1995 09 19.26846 – 2023 07 07.358569
These data are available for download (format description).

Date (UT) J2000 RA J2000 Dec Magn Location Ref
1995 09 19.26846 00 55 17.01 +00 40 29.9 18.6 V 691 – Steward Observatory, Kitt Peak-Spacewatch MPC 25834
1995 09 19.28930 00 55 15.93 +00 40 25.5   691 – Steward Observatory, Kitt Peak-Spacewatch MPC 25834
1995 09 19.31013 00 55 14.84 +00 40 21.3   691 – Steward Observatory, Kitt Peak-Spacewatch MPC 25834
1995 09 24.29841 00 50 56.40 +00 23 24.0 18.4 V 691 – Steward Observatory, Kitt Peak-Spacewatch MPC 25834
1995 09 24.31922 00 50 55.19 +00 23 19.7   691 – Steward Observatory, Kitt Peak-Spacewatch MPC 25834
1995 09 24.34013 00 50 54.02 +00 23 15.2   691 – Steward Observatory, Kitt Peak-Spacewatch MPC 25834
1995 09 30.18835 00 45 31.09 +00 03 22.9 18.3 V 691 – Steward Observatory, Kitt Peak-Spacewatch MPS 32245
1995 09 30.21055 00 45 29.81 +00 03 18.4 18.1 V 691 – Steward Observatory, Kitt Peak-Spacewatch MPS 32245
1995 09 30.23284 00 45 28.50 +00 03 14.0 18.0 V 691 – Steward Observatory, Kitt Peak-Spacewatch MPS 32245
1998 04 24.19195 12 27 02.67 +00 13 34.6 20.2 V 691 – Steward Observatory, Kitt Peak-Spacewatch MPS 13650
1998 04 24.21284 12 27 01.69 +00 13 38.3 20.2 V 691 – Steward Observatory, Kitt Peak-Spacewatch MPS 13650
1998 04 24.23376 12 27 00.73 +00 13 41.8 19.9 V 691 – Steward Observatory, Kitt Peak-Spacewatch MPS 13650
1999 09 04.29223 23 52 13.79 -08 15 47.4 17.9 R 699 – Lowell Observatory-LONEOS MPS 59622
1999 09 04.30755 23 52 13.00 -08 15 51.5   699 – Lowell Observatory-LONEOS MPS 59622
1999 09 04.32287 23 52 12.25 -08 15 55.0   699 – Lowell Observatory-LONEOS MPS 59622
1999 09 07.39603 23 49 39.51 -08 27 36.9 18.7   704 – Lincoln Laboratory ETS, New Mexico MPS 13650
1999 09 07.40742 23 49 38.93 -08 27 40.9 19.2   704 – Lincoln Laboratory ETS, New Mexico MPS 13650
1999 09 07.41885 23 49 38.38 -08 27 41.6 19.3   704 – Lincoln Laboratory ETS, New Mexico MPS 13651
1999 09 07.44156 23 49 37.20 -08 27 46.8 19.3   704 – Lincoln Laboratory ETS, New Mexico MPS 13651
1999 09 09.41509 23 47 55.51 -08 35 10.0 19.0   704 – Lincoln Laboratory ETS, New Mexico MPS 6398
1999 09 09.42870 23 47 54.74 -08 35 13.0 18.9   704 – Lincoln Laboratory ETS, New Mexico MPS 6398
1999 09 09.44233 23 47 53.97 -08 35 16.5 18.8   704 – Lincoln Laboratory ETS, New Mexico MPS 6398
1999 09 09.45587 23 47 53.22 -08 35 18.3 19.4   704 – Lincoln Laboratory ETS, New Mexico MPS 6398
1999 09 09.46936 23 47 52.53 -08 35 21.4 19.2   704 – Lincoln Laboratory ETS, New Mexico MPS 6398
1999 09 13.28378 23 44 30.63 -08 48 58.9 19.4   704 – Lincoln Laboratory ETS, New Mexico MPS 6398
1999 09 13.29491 23 44 29.99 -08 49 00.4 19.6   704 – Lincoln Laboratory ETS, New Mexico MPS 6398
1999 09 13.30626 23 44 29.39 -08 49 03.4 19.8   704 – Lincoln Laboratory ETS, New Mexico MPS 6398
1999 09 13.31774 23 44 28.72 -08 49 06.2 19.8   704 – Lincoln Laboratory ETS, New Mexico MPS 6398
1999 09 30.27478 23 29 58.33 -09 29 32.8 18.6   704 – Lincoln Laboratory ETS, New Mexico MPS 13651
1999 09 30.28742 23 29 57.74 -09 29 33.5 19.1   704 – Lincoln Laboratory ETS, New Mexico MPS 13651
1999 09 30.30009 23 29 57.14 -09 29 34.8 19.6   704 – Lincoln Laboratory ETS, New Mexico MPS 13651
1999 09 30.31291 23 29 56.35 -09 29 34.6 19.6   704 – Lincoln Laboratory ETS, New Mexico MPS 13651
1999 09 30.32554 23 29 55.93 -09 29 35.8 19.0   704 – Lincoln Laboratory ETS, New Mexico MPS 13651
1999 10 07.27799 23 25 12.76 -09 32 42.4 19.5   704 – Lincoln Laboratory ETS, New Mexico MPS 13651
1999 10 07.28976 23 25 12.26 -09 32 40.6 19.1   704 – Lincoln Laboratory ETS, New Mexico MPS 13651
1999 10 07.30133 23 25 11.82 -09 32 41.2 19.6   704 – Lincoln Laboratory ETS, New Mexico MPS 13651
1999 10 08.18292 23 24 41.07 -09 32 27.1 19.3   704 – Lincoln Laboratory ETS, New Mexico MPS 13651
1999 10 08.22905 23 24 39.35 -09 32 25.5 19.0   704 – Lincoln Laboratory ETS, New Mexico MPS 13651
1999 10 08.24454 23 24 38.77 -09 32 25.0 18.3   704 – Lincoln Laboratory ETS, New Mexico MPS 13651
1999 10 15.17171 23 21 19.83 -09 25 07.2 19.2   704 – Lincoln Laboratory ETS, New Mexico MPS 13651
1999 10 15.18994 23 21 19.37 -09 25 05.6 20.0   704 – Lincoln Laboratory ETS, New Mexico MPS 13651
1999 10 15.20602 23 21 18.97 -09 25 03.9 19.9   704 – Lincoln Laboratory ETS, New Mexico MPS 13651
1999 10 15.22199 23 21 18.56 -09 25 02.6 20.2   704 – Lincoln Laboratory ETS, New Mexico MPS 13651
1999 10 15.23842 23 21 18.01 -09 24 59.7 20.1   704 – Lincoln Laboratory ETS, New Mexico MPS 13651
2002 03 16.31254 12 24 35.65 +02 05 02.8 19.7   704 – Lincoln Laboratory ETS, New Mexico MPS 51615
2002 03 16.32610 12 24 35.03 +02 05 06.6 20.2   704 – Lincoln Laboratory ETS, New Mexico MPS 51615
2002 03 16.33966 12 24 34.30 +02 05 11.7 19.9   704 – Lincoln Laboratory ETS, New Mexico MPS 51615
2002 03 16.35321 12 24 33.70 +02 05 15.0 19.8   704 – Lincoln Laboratory ETS, New Mexico MPS 51615
2002 03 16.36697 12 24 32.83 +02 05 19.9 20.2   704 – Lincoln Laboratory ETS, New Mexico MPS 51615
2002 04 15.19936 11 58 27.58 +04 13 55.4 19.6   704 – Lincoln Laboratory ETS, New Mexico MPS 54434
2002 04 15.21359 11 58 26.99 +04 13 58.0 19.9   704 – Lincoln Laboratory ETS, New Mexico MPS 54434
2002 04 15.22740 11 58 26.26 +04 14 00.3 18.9   704 – Lincoln Laboratory ETS, New Mexico MPS 54434
2002 04 15.24120 11 58 25.64 +04 14 02.8 19.7   704 – Lincoln Laboratory ETS, New Mexico MPS 54434
2002 04 15.25502 11 58 25.03 +04 14 06.7 20.2   704 – Lincoln Laboratory ETS, New Mexico MPS 54434
2003 07 08.43782 22 54 02.98 -14 52 05.7 18.6   644 – Palomar Mountain/NEAT MPS 82210
2003 07 08.45948 22 54 03.47 -14 52 06.1 18.4   644 – Palomar Mountain/NEAT MPS 82210
2003 07 08.48201 22 54 04.00 -14 52 06.7 18.1   644 – Palomar Mountain/NEAT MPS 82210
2003 07 25.42148 22 56 33.44 -15 20 19.2 18.0   644 – Palomar Mountain/NEAT MPS 82367
2003 07 25.44786 22 56 33.15 -15 20 23.9 17.9   644 – Palomar Mountain/NEAT MPS 82367
2003 07 25.46955 22 56 32.92 -15 20 27.7 17.8   644 – Palomar Mountain/NEAT MPS 82367
2003 08 02.58615 22 54 22.31 -15 48 17.3 20.0   608 – Haleakala-AMOS MPS 82606
2003 08 02.59678 22 54 22.01 -15 48 19.6 19.7   608 – Haleakala-AMOS MPS 82606
2003 08 02.60790 22 54 21.70 -15 48 21.8 19.4   608 – Haleakala-AMOS MPS 82606
2003 08 23.31382 22 40 44.24 -17 14 32.2 18.5   704 – Lincoln Laboratory ETS, New Mexico MPS 83201
2003 08 23.32618 22 40 43.56 -17 14 34.8 18.7   704 – Lincoln Laboratory ETS, New Mexico MPS 83201
2003 08 23.33866 22 40 42.93 -17 14 38.7 18.4   704 – Lincoln Laboratory ETS, New Mexico MPS 83201
2003 08 31.26597 22 33 50.13 -17 41 37.2 18.3   704 – Lincoln Laboratory ETS, New Mexico MPS 83916
2003 08 31.27790 22 33 49.46 -17 41 39.7 18.5   704 – Lincoln Laboratory ETS, New Mexico MPS 83916
2003 08 31.30151 22 33 48.12 -17 41 43.9 18.5   704 – Lincoln Laboratory ETS, New Mexico MPS 83916
2003 08 31.31345 22 33 47.50 -17 41 45.1 18.3   704 – Lincoln Laboratory ETS, New Mexico MPS 83916
2003 08 31.43235 22 33 41.43 -17 42 05.1 18.6   608 – Haleakala-AMOS MPS 83916
2003 08 31.44315 22 33 40.82 -17 42 06.9 18.7   608 – Haleakala-AMOS MPS 83916
2003 08 31.45374 22 33 40.25 -17 42 08.9 18.9   608 – Haleakala-AMOS MPS 83916
2003 09 05.33359 22 29 29.66 -17 54 01.3 19.4   608 – Haleakala-AMOS MPS 83916
2003 09 05.34463 22 29 29.09 -17 54 02.7 19.0   608 – Haleakala-AMOS MPS 83916
2003 09 05.35520 22 29 28.54 -17 54 04.0 19.9   608 – Haleakala-AMOS MPS 83916
2003 09 07.39890 22 27 47.39 -17 57 44.9 18.9   608 – Haleakala-AMOS MPS 83916
2003 09 07.40961 22 27 46.89 -17 57 45.9 19.0   608 – Haleakala-AMOS MPS 83916
2003 09 07.42002 22 27 46.32 -17 57 47.1 18.8   608 – Haleakala-AMOS MPS 83916
2003 09 21.35720 22 18 18.85 -18 01 01.3 20.1   608 – Haleakala-AMOS MPS 85008
2003 09 21.36799 22 18 18.50 -18 01 00.3 19.9   608 – Haleakala-AMOS MPS 85008
2003 09 21.37879 22 18 18.14 -18 01 00.0 19.7   608 – Haleakala-AMOS MPS 85008
2003 09 25.18841 22 16 33.32 -17 54 58.3 18.5   644 – Palomar Mountain/NEAT MPS 85008
2003 09 25.20976 22 16 32.76 -17 54 55.9 18.2   644 – Palomar Mountain/NEAT MPS 85008
2003 09 25.23132 22 16 32.18 -17 54 53.4 18.1   644 – Palomar Mountain/NEAT MPS 85008
2003 09 28.16640 22 15 29.41 -17 48 14.7 18.5   704 – Lincoln Laboratory ETS, New Mexico MPS 86028
